Tracking 18942 objects as of 17-Jan-2018
HD Live streaming from Space Station
objects crossing your sky now

FENGYUN 1C DEB

Track FENGYUN 1C DEB now!
10-day predictions


NORAD ID: 37466
Int'l Code: 1999-025EJL
Perigee: 654.8 km
Apogee: 832.3 km
Inclination: 99.1 °
Period: 99.5 minutes
Semi major axis: 7114 km
RCS: 0.0036 m2 (small)
Launch date: May 10, 1999
Source: People's Republic of China (PRC)
Launch site: Taiyaun Space Center, China (TSC)

Note: This is SATELLITE DEBRIS
aabbcc
Your satellite tracking list
Your tracking list is empty




NASA's NSSDC Master Catalog

Two Line Element Set (TLE):
1 37466U 99025EJL 18011.89793412  .00001160  00000-0  30598-3 0  9991
2 37466  99.1185 258.7520 0124707 298.1443  60.7192 14.46713411475049
Source of the keplerian elements: AFSPC